Location: Newark
(25.6108°S, 54.5803°W)
Time: 20:44:33
(UTC+00:00)

Courier 1B - Pass Details

Date: 02 November 2020
Orbit: 962 x 1209 km, 28.3° (Epoch: 24 November)

Event Time Altitude Azimuth Distance (km) Brightness Sun altitude
Rises 06:05:44 0° 259° (WSW) 4,098 - -33.2°
Reaches altitude 10° 06:08:41 10° 264° (W) 3,145 - -32.6°
Maximum altitude 06:16:09 47° 335° (NNW) 1,552 - -31.3°
Exits shadow 06:19:23 32° 26° (NNE) 1,947 8.9 -30.8°
Drops below altitude 10° 06:23:32 10° 46° (NE) 3,105 10.2 -30.0°
Sets 06:26:27 0° 51° (NE) 4,042 10.9 -29.5°
